Location: Newark
(17.1333°N, 61.8333°W)
Time: 10:11:51
(UTC+00:00)

Envisat - Pass Details

Date: 24 July 2019
Orbit: 764 x 766 km, 98.1° (Epoch: 25 August)

Event Time Altitude Azimuth Distance (km) Brightness Sun altitude
Rises 23:28:13 0° 194° (SSW) 3,220 6.1 -10.8°
Reaches altitude 10° 23:30:54 10° 207° (SSW) 2,295 5.5 -11.4°
Maximum altitude 23:34:59 25° 261° (W) 1,515 5.2 -12.2°
Drops below altitude 10° 23:39:05 10° 315° (NW) 2,299 6.7 -13.1°
Sets 23:41:47 0° 329° (NNW) 3,226 7.3 -13.7°
